Weather History for Durango, CO

Change the Weather History Date:

Wednesday, May 22, 2013

  Actual Average Record
Temperature  
Mean Temperature 56 °F 55 °F  
Max Temperature 77 °F 73 °F 87 °F (1984)
Min Temperature 35 °F 37 °F 25 °F (2002)
Degree Days  
Heating Degree Days 9 10  
Month to date heating degree days 283 292  
Since 1 July heating degree days 7023 6928  
Cooling Degree Days 0 0  
Month to date cooling degree days 0 0  
Year to date cooling degree days 0 0  
Growing Degree Days 6 (Base 50)    
Moisture  
Dew Point 24 °F    
Average Humidity 41    
Maximum Humidity 70    
Minimum Humidity 12    
Precipitation  
Precipitation 0.00 in 0.02 in 0.20 in (2006)
Month to date precipitation 0.47 0.66  
Year to date precipitation 3.75 5.29  
Sea Level Pressure  
Sea Level Pressure 29.80 in    
Wind  
Wind Speed 6 mph (WNW)    
Max Wind Speed 20 mph    
Max Gust Speed 30 mph    
Visibility 10 miles    
Events      
T = Trace of Precipitation, MM = Missing Value Source: NWS Daily Summary

Daily Weather History Graph

Daily Weather History Graph

Search for Another Location

Airport:

Trip Planner

Search our weather history database for the weather conditions in past years. The results will help you decide how hot, cold, wet, or windy it might be!

Date:

Astronomy

May. 22, 2013 Rise Set
Actual Time 5:57 AM MDT 8:18 PM MDT
Civil Twilight 5:27 AM MDT 8:48 PM MDT
Nautical Twilight 4:51 AM MDT 9:24 PM MDT
Astronomical Twilight 4:11 AM MDT 10:05 PM MDT
Moon 5:47 PM MDT (5/22) 3:59 AM MDT (5/22)
Length of Visible Light 15h 20m
Length of Day
14h 21m
Waxing Gibbous, 92% of the Moon is Illuminated
May 22
Waxing Gibbous
May 24
Full
May 31
Last Quarter
Jun 8
New
Jun 16
First Quarter

Hourly Weather History & Observations

Time (MDT) Temp. Windchill Dew Point Humidity Pressure Visibility Wind Dir Wind Speed Gust Speed Precip Events Conditions
12:53 AM 45.0 °F - 27.0 °F 49% 29.84 in 10.0 mi Calm Calm - N/A   Clear
1:53 AM 45.0 °F 42.6 °F 28.9 °F 53% 29.83 in 10.0 mi North 4.6 mph - N/A   Clear
2:53 AM 42.1 °F 40.2 °F 28.9 °F 60% 29.83 in 10.0 mi North 3.5 mph - N/A   Clear
3:53 AM 41.0 °F 36.4 °F 28.0 °F 60% 29.83 in 10.0 mi North 6.9 mph - N/A   Clear
4:53 AM 37.0 °F - 27.0 °F 67% 29.86 in 10.0 mi Calm Calm - N/A   Clear
5:53 AM 36.0 °F 32.1 °F 26.1 °F 67% 29.87 in 10.0 mi NE 4.6 mph - N/A   Clear
6:53 AM 42.1 °F 40.2 °F 27.0 °F 55% 29.86 in 10.0 mi North 3.5 mph - N/A   Clear
7:53 AM 51.1 °F - 30.9 °F 46% 29.84 in 10.0 mi Calm Calm - N/A   Clear
8:53 AM 57.0 °F - 30.9 °F 37% 29.85 in 10.0 mi ENE 3.5 mph - N/A   Clear
9:53 AM 64.0 °F - 30.0 °F 28% 29.82 in 10.0 mi SE 10.4 mph - N/A   Clear
10:53 AM 66.9 °F - 28.0 °F 23% 29.82 in 10.0 mi ESE 9.2 mph - N/A   Clear
11:53 AM 69.1 °F - 24.1 °F 18% 29.82 in 10.0 mi Variable 3.5 mph - N/A   Clear
12:53 PM 72.0 °F - 19.9 °F 14% 29.81 in 10.0 mi South 11.5 mph - N/A   Clear
1:53 PM 73.0 °F - 21.9 °F 15% 29.79 in 10.0 mi Variable 4.6 mph 19.6 mph N/A   Clear
2:53 PM 75.9 °F - 21.9 °F 13% 29.78 in 10.0 mi SW 18.4 mph 27.6 mph N/A   Clear
3:53 PM 73.9 °F - 19.0 °F 13% 29.77 in 10.0 mi SE 10.4 mph 23.0 mph N/A   Clear
4:53 PM 75.0 °F - 19.9 °F 13% 29.77 in 10.0 mi WSW 6.9 mph - N/A   Clear
5:53 PM 75.0 °F - 19.9 °F 13% 29.75 in 10.0 mi West 6.9 mph - N/A   Clear
6:53 PM 73.9 °F - 21.0 °F 14% 29.72 in 10.0 mi WSW 8.1 mph - N/A   Clear
7:53 PM 70.0 °F - 19.9 °F 15% 29.71 in 10.0 mi WSW 4.6 mph - N/A   Clear
8:53 PM 68.0 °F - 19.0 °F 15% 29.70 in 10.0 mi South 3.5 mph - N/A   Clear
9:53 PM 64.9 °F - 18.0 °F 16% 29.72 in 10.0 mi Calm Calm - N/A   Clear
10:53 PM 60.1 °F - 23.0 °F 24% 29.75 in 10.0 mi Variable 4.6 mph - N/A   Clear
11:53 PM 55.0 °F - 24.1 °F 30% 29.77 in 10.0 mi North 5.8 mph - N/A   Clear